Location: Recife
(8.0585°S, 34.8848°W)
Time: 09:53:12
(UTC-03:00)

Courier 1B Rocket - Pass Details

Date: 16 April 2026
Orbit: 920 x 1201 km, 28.2° (Epoch: 13 May)

Event Time Altitude Azimuth Distance (km) Brightness Sun altitude
Rises 01:50:40 0° 330° (NNW) 3,542 - -52.6°
Reaches altitude 10° 01:54:06 10° 348° (NNW) 2,595 - -51.8°
Maximum altitude 01:58:16 19° 30° (NNE) 2,057 - -50.8°
Exits shadow 02:02:28 10° 73° (ENE) 2,626 7.7 -49.7°
Drops below altitude 10° 02:02:30 10° 73° (ENE) 2,632 7.7 -49.7°
Sets 02:05:59 0° 91° (E) 3,612 8.6 -48.9°
